Theta_e
282 281 281 280 280 280 280 280 279 279 279 279 278 278 278 277 277 277 276 276 276 276 276 276 276 276 276 276 275 276 275 276 276 276 276 276 276 276 276 277 276 277 277 277 278 278 278 278 278 279 280 279 280 280 280 281 281 281 281 282 282 282 282 281 280 280 283 286 285 285 286 286 285 287 286 287 288 289 289 290 290 290 290 290 290
281 280 280 279 279 279 279 279 279 278 278 277 277 276 276 275 275 275 274 274 275 274 274 275 274 275 274 274 274 274 274 274 274 274 274 274 274 275 275 275 275 275 275 275 276 277 277 277 277 278 279 279 279 279 279 280 280 280 280 280 280 281 282 281 280 280 279 283 283 285 285 286 284 287 286 285 286 287 287 288 289 290 289 289 289
280 280 279 278 278 278 278 277 277 277 276 276 275 274 274 274 274 273 273 273 274 273 273 273 273 273 273 273 273 273 273 273 273 273 273 273 273 273 274 273 273 273 274 274 275 275 275 275 276 277 278 277 277 278 278 278 279 279 279 280 279 280 281 281 280 278 279 279 282 282 283 284 284 284 285 286 286 287 286 286 287 288 289 289 289
279 278 277 277 277 277 277 276 276 276 275 274 273 272 272 272 272 272 272 272 272 272 272 272 272 272 271 272 272 271 271 271 271 272 272 272 272 272 272 272 273 273 273 273 274 274 274 274 274 275 275 274 275 275 276 277 277 278 278 278 279 279 280 280 280 279 279 278 280 281 282 282 282 284 285 286 285 285 286 286 287 287 287 288 288
278 277 276 275 276 276 275 275 274 274 273 272 272 271 271 271 271 271 271 271 271 271 271 271 271 271 270 270 270 270 270 270 270 270 271 271 271 271 272 272 272 273 273 273 273 273 273 273 273 274 274 273 274 274 275 275 275 276 276 277 277 278 278 279 279 280 278 277 278 280 281 282 282 283 284 283 283 284 285 285 286 286 286 287 287
277 276 275 275 275 275 274 274 273 272 272 271 271 270 270 270 270 270 270 269 270 269 269 269 269 269 269 269 269 269 269 269 269 269 270 270 271 271 272 272 272 272 272 273 273 273 273 273 273 273 273 273 273 274 274 274 274 275 275 276 277 277 278 278 279 279 278 278 278 278 280 280 280 281 283 283 282 282 283 284 285 285 285 285 286
275 275 274 274 274 274 273 273 272 271 271 270 270 269 269 269 268 268 268 268 268 268 268 268 268 268 268 268 268 268 268 268 268 268 269 270 271 271 272 272 272 272 272 272 273 273 273 273 273 273 273 273 272 273 273 274 274 275 275 276 276 276 276 277 277 277 277 277 277 278 278 280 280 279 282 283 283 282 281 281 281 283 284 284 284
274 274 273 273 273 273 272 271 271 270 270 269 268 268 268 267 267 267 267 266 266 266 266 266 267 267 267 267 267 267 267 267 267 268 269 270 271 272 272 272 272 272 272 272 272 272 272 272 272 272 272 272 273 273 273 273 274 274 274 275 275 275 275 275 275 276 276 276 276 276 277 278 279 281 282 282 281 281 282 281 279 281 282 284 284
273 272 272 272 272 272 271 270 270 269 268 267 267 266 266 266 266 266 265 265 265 266 266 266 265 265 266 266 266 266 266 266 266 268 270 271 272 272 272 271 271 271 271 272 272 272 272 272 272 272 273 274 275 275 275 275 273 272 273 274 273 273 274 274 274 275 275 275 275 276 276 276 277 278 278 278 278 278 281 281 280 281 282 282 283
272 272 272 271 271 270 269 269 268 268 267 266 265 265 265 265 265 264 264 264 264 265 265 265 265 264 264 265 265 265 265 265 266 271 273 272 272 272 272 271 272 271 271 271 271 271 271 271 272 273 273 273 273 274 274 275 275 274 273 273 273 272 272 271 271 272 272 272 273 275 274 275 276 277 277 278 280 280 280 280 279 280 281 281 282
271 271 271 270 269 269 268 267 267 266 265 265 264 264 264 263 263 263 263 263 263 263 264 264 264 264 264 264 263 264 264 264 269 272 273 274 273 272 271 271 271 271 270 270 269 270 270 271 271 271 271 271 271 273 274 274 274 275 275 275 275 273 272 271 271 272 271 271 272 272 272 272 274 276 276 277 279 279 280 280 280 280 279 278 278
271 270 270 269 268 267 267 266 265 265 264 264 263 263 262 262 262 262 262 262 262 263 263 263 263 263 263 263 263 263 263 266 269 271 272 273 274 272 272 271 270 270 270 270 270 269 269 269 269 269 269 270 270 271 271 273 273 273 274 274 275 275 276 273 272 271 271 271 271 271 272 271 272 274 274 275 275 276 276 276 276 277 277 277 278
270 269 268 267 267 266 265 265 264 263 263 262 262 262 261 261 261 261 261 262 262 262 262 262 262 262 262 262 262 262 262 265 268 271 272 273 274 273 271 271 270 270 270 269 269 268 268 268 268 268 269 271 270 270 270 269 271 272 273 273 274 274 275 275 276 273 273 272 271 271 272 273 272 273 275 275 276 275 275 275 276 276 276 275 275
268 267 266 266 266 265 264 263 263 263 262 262 262 261 261 261 261 261 261 261 261 261 261 261 261 261 261 261 261 261 262 264 269 271 272 272 273 273 271 271 270 269 269 268 268 268 268 267 267 267 268 269 269 269 269 269 269 270 270 271 271 272 274 275 275 275 275 273 272 271 273 274 273 274 276 277 275 274 274 274 276 276 276 276 278
267 266 265 265 264 264 264 263 262 262 262 261 261 261 260 260 260 261 260 261 260 260 260 259 260 260 260 260 260 260 261 266 269 270 271 272 273 273 270 269 268 268 268 268 268 268 268 268 268 268 268 268 269 270 270 270 270 270 270 270 271 271 272 272 273 273 273 274 273 273 274 274 275 275 276 276 276 276 276 276 276 276 277 279 279
266 265 264 264 263 264 262 262 261 261 261 260 259 260 260 260 259 260 260 260 260 260 260 260 259 259 259 259 259 259 260 265 267 269 271 272 273 270 269 268 267 267 268 268 268 268 268 268 268 268 268 268 271 273 273 272 271 270 270 271 271 272 272 275 276 277 276 275 275 275 275 275 278 277 277 277 277 278 278 278 278 277 276 275 275
265 264 263 263 263 263 263 261 261 260 260 259 259 259 260 259 259 259 258 259 259 259 258 259 259 259 258 258 258 259 259 262 267 269 270 271 271 268 268 268 267 267 267 268 269 269 269 269 269 268 269 269 271 274 275 275 272 271 271 271 272 272 272 274 277 278 278 279 279 280 280 280 280 281 281 281 279 278 276 274 273 274 273 271 272
265 264 263 263 263 263 263 261 260 259 259 258 258 260 259 259 258 258 258 258 258 258 258 258 258 258 258 258 258 258 259 262 266 268 270 271 270 268 268 267 267 267 268 269 269 269 269 270 271 270 270 270 273 275 276 275 273 273 272 271 271 271 272 274 274 275 277 278 279 279 279 280 280 280 280 280 279 278 275 272 273 274 271 271 270
264 263 263 263 263 262 261 260 260 259 258 259 258 257 258 257 258 258 258 257 257 258 257 257 257 257 258 258 259 259 259 260 265 267 269 270 270 268 268 268 267 267 268 268 269 269 269 271 272 272 272 273 276 277 277 276 274 273 273 272 271 271 272 273 273 273 273 273 273 274 275 276 276 276 276 278 279 278 276 274 274 273 271 271 271
264 263 263 262 261 260 260 259 259 258 258 257 257 257 257 256 257 257 257 257 257 257 257 257 256 256 257 257 257 258 258 259 261 267 269 270 271 269 269 268 267 267 268 268 268 269 269 270 271 274 275 276 277 277 277 278 275 274 274 272 271 271 274 274 274 274 273 273 273 274 274 275 275 276 276 275 276 276 276 275 274 273 272 271 272
263 262 262 261 260 259 258 257 256 256 256 256 257 256 256 257 257 256 255 255 255 256 255 256 256 256 257 258 258 258 258 259 260 267 269 270 271 271 269 268 268 268 268 268 268 268 269 270 271 273 276 276 277 277 278 278 277 275 275 274 274 275 276 274 275 276 274 274 273 273 273 273 273 273 274 274 274 274 275 275 275 274 273 272 271
262 261 261 260 258 257 256 256 256 255 255 254 254 255 256 255 255 255 255 255 254 254 255 255 256 256 257 257 257 258 259 261 261 265 268 270 271 272 270 270 271 270 270 270 270 269 270 271 271 273 275 276 277 278 278 278 278 275 275 277 278 279 276 276 275 274 274 273 273 272 272 272 272 272 272 272 273 273 273 274 274 274 274 274 272
261 260 259 257 256 255 255 254 254 254 253 255 254 254 254 254 254 254 254 254 254 254 255 255 255 256 256 257 258 258 259 259 264 264 268 270 272 272 273 272 274 272 270 269 270 270 271 271 272 274 276 276 277 278 278 278 277 276 278 278 278 277 276 274 273 272 271 271 270 269 269 269 269 270 270 271 272 272 272 273 273 273 274 274 275
259 257 256 255 254 254 253 252 253 252 253 253 252 252 253 253 253 253 254 254 254 254 255 255 255 255 255 256 257 259 260 261 264 267 267 270 272 273 273 274 274 272 272 271 271 271 271 271 272 276 277 277 278 278 278 277 275 277 277 277 277 276 272 270 269 269 268 268 268 268 268 269 269 269 270 271 272 272 273 273 273 273 273 273 274
256 255 253 253 252 251 251 251 251 251 250 252 252 253 253 251 253 252 253 254 254 254 254 254 254 254 255 256 258 261 263 264 265 267 270 270 272 272 273 274 274 275 272 272 272 272 274 276 277 277 276 276 277 276 275 274 275 275 275 275 273 269 268 268 267 267 267 266 267 267 268 269 269 270 271 272 272 273 272 273 273 273 273 273 273
256 254 252 252 252 251 252 252 251 251 251 252 252 252 252 253 253 254 253 253 253 253 254 254 254 254 255 257 260 262 264 264 265 266 267 268 269 271 273 274 273 274 274 273 274 275 275 275 275 275 274 274 272 270 270 270 272 272 272 270 267 267 267 267 266 266 266 267 267 267 268 270 270 271 272 272 271 271 271 271 272 272 272 272 272
256 254 253 253 251 251 251 252 252 252 250 251 251 252 253 252 252 253 253 253 253 253 254 254 254 255 256 259 261 262 263 264 264 266 267 267 267 268 270 271 273 274 272 271 271 271 271 271 271 273 272 272 271 270 269 268 266 266 267 267 267 267 267 267 267 267 267 267 267 268 269 270 270 270 270 270 270 271 272 272 271 271 272 272 271
256 255 253 252 252 251 251 254 254 253 252 251 252 252 252 252 252 253 253 254 253 254 254 255 256 257 258 260 261 262 262 263 265 265 266 267 269 270 271 271 271 270 269 269 270 270 269 269 268 266 265 264 264 264 264 265 265 266 266 266 267 267 267 268 268 267 267 267 267 268 268 269 269 269 270 270 270 271 272 272 271 271 272 272 270
255 252 251 250 252 253 252 252 252 252 251 251 251 253 252 253 253 254 255 255 256 255 256 257 259 260 261 260 259 260 264 264 265 269 270 272 271 271 270 270 269 268 269 271 267 265 264 262 261 261 261 261 261 262 263 263 263 263 263 264 264 263 263 263 263 264 265 266 266 266 266 267 267 268 269 269 270 271 272 272 272 271 271 271 270
254 253 253 252 250 251 252 251 249 251 250 251 251 252 256 259 259 257 257 261 265 267 266 261 262 263 263 264 266 265 264 266 270 272 272 273 274 273 273 272 271 269 270 269 264 260 259 258 259 259 259 259 259 260 260 260 260 260 261 263 262 261 262 262 262 263 265 265 265 265 265 266 266 268 269 269 270 271 272 273 272 272 271 271 270
256 255 253 252 252 252 251 251 251 250 250 251 251 252 252 254 260 263 265 265 266 267 268 269 269 270 268 266 267 269 270 271 271 271 272 273 273 272 272 271 270 270 269 263 259 258 257 257 257 258 258 259 258 259 259 259 259 259 259 260 260 261 261 261 262 263 263 263 264 264 265 265 266 268 268 269 269 270 271 272 272 272 271 271 270
257 256 255 253 254 254 253 252 252 251 251 252 251 251 251 252 253 259 262 264 265 266 267 267 268 268 268 267 266 265 268 270 270 271 272 272 271 271 271 269 268 269 268 264 257 256 257 256 256 257 257 257 258 258 258 258 258 258 259 259 259 260 260 261 262 262 263 263 263 264 264 265 266 267 268 269 269 269 270 271 271 271 271 272 271
256 254 253 252 253 254 253 252 252 252 251 251 250 250 251 251 251 252 256 260 262 264 265 266 266 266 267 267 268 268 268 269 270 271 271 271 270 270 269 267 267 267 265 258 255 255 256 256 256 256 257 256 257 257 257 258 258 258 258 258 258 259 260 261 262 262 262 262 264 264 265 265 266 267 267 268 268 268 269 270 271 271 271 271 271
254 253 252 252 252 252 252 252 252 252 252 252 251 252 252 252 252 252 252 253 255 258 260 262 263 264 265 266 266 267 268 268 269 270 270 269 269 269 267 262 264 264 262 256 255 255 255 255 256 256 256 256 257 257 257 257 258 258 258 259 259 260 260 261 261 261 262 263 264 264 265 265 266 265 265 266 267 267 268 269 270 270 270 271 271
252 253 254 253 252 252 252 254 253 251 252 251 251 251 252 252 253 253 252 252 252 252 253 254 258 262 262 263 265 266 267 268 269 269 269 268 268 267 264 256 256 256 256 254 255 255 255 255 255 256 256 256 256 257 256 257 257 258 258 258 259 260 260 261 261 262 262 263 264 264 264 265 265 265 265 265 265 266 267 268 269 270 270 271 271
253 253 253 254 252 253 253 252 252 252 251 251 250 252 252 252 252 252 252 252 252 252 252 253 253 258 261 263 264 264 266 267 268 268 267 266 266 263 255 254 254 254 254 255 254 255 255 255 255 255 256 256 256 256 257 257 257 258 258 259 259 260 260 260 262 263 264 263 263 264 264 264 264 264 265 265 265 266 266 267 268 269 270 271 271
251 253 253 252 252 252 252 250 250 251 255 254 253 253 253 253 252 251 251 251 251 251 252 252 252 253 256 255 257 261 264 266 266 266 265 264 263 257 252 253 253 254 254 254 255 255 255 255 255 255 255 255 256 256 257 257 258 258 259 260 260 260 261 262 263 264 263 263 263 263 263 264 264 264 264 264 265 265 266 267 268 269 270 270 271
252 252 251 251 252 251 251 251 250 254 254 254 254 251 251 250 250 251 251 251 252 252 251 251 253 251 251 253 256 256 257 263 264 262 260 258 255 253 253 253 253 253 254 254 254 254 254 255 255 255 255 256 256 256 257 257 258 259 259 260 261 262 264 264 264 263 264 263 263 264 264 264 264 264 264 264 264 265 265 266 267 267 268 269 270
250 253 254 255 255 251 250 251 252 250 250 251 250 250 251 250 250 249 250 249 250 250 250 250 250 251 252 252 253 255 257 259 258 255 254 253 253 252 252 252 252 253 253 253 254 254 254 254 255 255 255 256 256 256 257 257 258 259 260 261 262 263 264 264 264 264 264 264 264 264 264 264 264 264 264 264 264 265 265 266 266 267 267 268 269
250 251 254 256 254 256 255 253 251 250 250 249 248 248 249 249 249 249 248 248 249 250 250 250 251 251 252 252 253 255 258 259 256 254 252 252 252 252 251 252 252 252 252 253 253 253 254 254 254 255 255 255 256 256 257 258 258 259 260 262 263 263 264 264 264 264 264 264 264 264 264 264 264 264 264 265 265 265 265 265 265 266 267 268 269
250 252 252 255 254 252 252 251 250 248 248 249 249 248 249 250 249 250 249 249 250 250 250 250 251 251 252 255 260 262 260 255 253 252 251 251 252 252 251 251 252 252 252 252 253 253 253 253 254 255 255 255 256 256 257 258 258 259 260 262 263 264 264 265 265 265 264 264 264 264 264 264 264 264 263 264 266 265 265 265 266 266 267 268 268
249 249 249 250 252 250 248 249 249 251 249 249 248 248 249 250 249 249 249 249 250 250 250 250 251 251 254 257 260 262 259 253 251 251 251 251 251 251 252 251 251 251 251 251 252 252 253 253 254 254 254 255 255 256 257 257 258 259 260 261 262 264 264 265 265 265 264 264 263 263 263 263 264 264 264 265 264 264 265 265 265 266 266 266 267
248 248 248 249 248 248 248 248 248 246 246 247 248 250 251 249 248 249 250 250 250 250 250 250 251 251 251 256 257 258 254 251 251 251 250 251 251 251 251 251 251 251 251 251 251 252 252 253 253 253 254 254 255 255 256 257 258 259 260 261 262 263 264 265 265 265 264 264 263 263 263 263 263 263 263 264 264 264 264 264 265 265 266 266 267
248 248 248 248 248 248 248 247 247 248 247 249 250 249 249 249 249 248 249 249 249 249 250 250 250 250 250 252 253 251 249 250 249 249 250 251 251 251 251 251 250 250 251 251 251 251 251 251 252 253 253 254 255 255 256 257 258 259 260 261 262 263 264 265 265 265 264 263 263 262 262 262 262 263 263 263 263 263 263 263 264 264 265 266 266
247 247 247 246 247 246 246 247 247 247 249 249 247 247 249 247 248 249 249 249 249 249 249 249 250 250 250 250 250 249 250 249 250 250 250 250 250 250 250 250 250 250 250 251 251 250 250 251 251 252 252 253 254 254 255 256 257 259 261 261 262 263 264 265 266 266 265 263 262 262 262 261 261 262 262 263 263 263 263 263 263 264 265 265 266
246 247 247 246 246 247 247 244 247 246 246 247 247 247 247 246 247 247 248 249 249 249 249 249 249 249 250 249 249 250 250 249 249 249 250 250 250 250 250 250 250 250 250 250 250 250 250 251 251 251 251 252 252 253 254 255 257 258 260 262 263 264 265 266 267 266 264 263 262 261 261 261 261 261 262 262 262 263 263 263 263 264 264 265 265
245 246 247 247 246 247 247 247 245 246 245 246 247 246 247 247 247 248 248 249 249 249 249 249 249 249 249 248 248 248 249 249 249 249 249 249 249 249 249 249 249 249 250 250 249 250 250 250 251 251 251 251 252 252 253 255 256 257 259 261 263 264 265 265 266 266 264 262 261 259 259 259 260 260 261 261 261 262 262 262 262 262 263 264 264
246 246 246 247 246 246 246 245 247 249 247 248 247 247 248 248 247 248 247 248 248 248 248 248 248 248 248 248 248 248 249 249 249 249 249 249 249 249 249 248 249 249 250 250 250 250 250 250 250 250 250 251 251 252 253 253 255 256 258 260 262 263 263 263 265 266 264 262 259 258 258 258 259 259 260 260 260 260 260 261 261 262 262 262 263
246 246 246 246 246 247 246 246 246 246 247 247 246 248 248 247 248 247 247 247 247 248 247 247 247 247 247 248 248 248 248 249 248 248 248 249 248 248 248 248 249 249 249 249 249 249 249 250 250 250 250 251 251 251 252 253 254 255 256 258 260 261 262 263 266 267 264 262 259 259 258 258 258 258 259 259 259 259 259 260 260 261 261 261 261
246 247 246 246 247 248 246 246 246 246 246 246 247 247 247 247 247 247 247 247 247 247 247 247 247 247 247 247 248 248 248 248 248 248 248 248 248 248 248 248 248 248 248 249 249 249 249 249 249 249 250 250 251 251 252 253 253 254 255 256 258 260 262 265 266 266 266 261 259 258 258 258 258 258 259 259 259 258 259 259 260 260 260 259 260
246 246 246 248 247 247 246 245 246 246 245 246 246 247 247 247 247 247 247 247 247 247 247 247 247 247 247 247 248 248 248 248 248 248 248 248 248 248 248 248 248 248 248 248 249 249 249 249 250 250 250 251 251 251 252 252 253 253 255 257 259 262 264 265 266 266 266 263 257 258 258 258 257 258 258 259 259 259 259 259 259 259 259 259 259
Wind_Speed
7 7 6 6 7 7 6 6 6 5 6 7 7 6 5 5 5 4 4 6 5 5 6 6 6 6 6 6 7 7 7 7 6 6 6 6 6 6 7 7 7 7 7 8 7 8 8 8 9 8 9 9 8 8 8 9 9 8 8 8 9 8 8 10 14 17 12 6 10 11 8 9 12 8 12 9 8 7 8 6 8 7 7 7 8
8 6 5 6 7 7 6 5 5 6 7 6 6 6 6 6 5 5 6 5 5 5 6 5 5 6 6 6 6 6 6 7 7 6 7 7 7 5 6 7 8 8 7 8 8 7 8 9 9 9 9 9 10 9 9 9 9 10 9 8 9 9 7 10 13 13 19 10 9 10 10 7 13 8 9 12 10 9 10 10 7 7 7 6 7
6 6 6 6 7 6 6 5 5 6 7 6 7 5 4 4 4 4 4 4 4 5 5 5 5 5 5 5 5 5 6 6 6 6 6 7 7 7 7 7 8 8 8 8 8 8 8 8 9 8 7 9 10 9 9 10 9 10 11 10 11 11 10 10 11 15 17 16 10 12 10 9 11 12 8 9 11 10 12 11 9 9 7 7 7
6 6 6 7 6 6 6 6 7 6 6 5 5 5 4 4 4 5 5 4 5 5 5 5 5 5 5 5 5 6 6 6 6 5 6 7 7 7 7 7 7 7 8 9 9 9 9 9 8 9 10 10 10 9 9 9 9 10 11 11 11 12 11 11 12 13 15 17 14 10 10 11 11 12 10 9 10 10 9 11 10 9 9 7 7
6 6 7 7 6 6 6 5 6 6 6 5 5 5 5 4 5 5 5 5 5 4 4 5 5 5 5 5 6 6 6 6 7 6 6 6 7 7 8 7 7 8 8 8 8 9 9 9 10 9 9 10 10 8 9 11 10 10 11 11 11 11 11 11 12 13 15 17 17 12 11 12 11 12 12 12 12 11 10 10 9 9 10 9 8
6 6 5 7 6 6 5 5 5 6 5 5 5 5 5 5 4 4 4 4 4 4 4 4 4 5 5 5 5 5 5 6 6 6 7 7 7 7 7 8 8 8 8 8 8 8 8 9 9 9 9 10 11 10 10 12 11 11 12 11 11 11 12 13 12 13 14 16 16 17 13 13 14 11 11 10 12 14 12 10 10 9 9 11 8
6 6 5 6 6 5 4 5 5 5 5 5 4 4 4 4 3 3 4 3 4 3 4 4 4 4 4 5 5 5 6 6 6 7 7 7 7 8 8 9 9 8 8 9 9 8 9 9 9 9 10 10 11 11 12 13 11 12 12 12 12 12 12 12 12 13 14 15 16 15 15 13 12 15 11 11 12 12 14 13 14 9 9 9 10
6 6 6 5 5 5 4 5 5 5 4 4 4 3 3 3 3 3 3 4 4 4 5 5 4 4 4 4 5 5 6 6 6 6 7 8 9 10 9 9 10 10 10 10 10 10 10 10 10 9 10 10 11 12 12 12 12 13 12 11 12 13 13 13 13 12 13 14 15 16 14 14 13 11 11 11 12 12 9 10 14 13 11 9 10
6 6 6 6 5 5 5 4 4 4 4 4 3 3 3 3 3 3 3 3 3 4 4 4 4 4 4 4 5 5 5 5 5 6 10 11 9 10 10 10 11 11 11 11 11 10 10 10 10 10 11 15 18 16 16 15 12 13 13 12 13 13 13 12 12 12 12 13 15 14 14 14 13 12 12 11 11 12 12 11 14 15 13 13 13
7 6 6 6 5 5 4 4 4 3 3 3 3 3 3 3 3 3 4 4 3 4 4 4 4 5 5 5 5 4 5 4 7 15 14 11 11 9 10 10 10 11 11 11 11 11 11 10 11 16 17 18 18 18 18 18 18 14 13 13 12 13 12 13 13 13 13 14 14 14 14 14 13 12 12 12 13 14 16 14 14 15 15 13 14
6 7 6 5 4 4 4 3 3 3 3 3 3 3 4 3 3 3 3 3 4 4 4 4 5 5 5 6 6 5 5 5 14 16 16 16 12 10 10 11 10 10 10 11 11 12 11 12 11 13 14 15 14 17 18 19 18 19 20 20 17 14 13 13 13 13 13 14 14 15 15 17 16 14 14 13 12 13 12 12 12 14 15 14 15
8 7 6 5 4 4 4 3 3 3 2 2 3 3 3 3 3 3 3 4 4 4 4 4 5 5 5 5 6 6 6 10 16 16 17 16 15 11 10 10 10 10 10 11 11 11 12 12 11 10 11 12 13 14 16 18 19 19 19 19 18 19 18 14 14 13 13 14 15 15 14 15 16 14 14 14 14 14 14 15 14 14 15 15 14
8 7 5 5 4 4 3 3 2 2 2 2 2 2 3 3 3 3 4 4 3 4 4 5 5 5 5 6 7 7 7 12 16 17 17 17 17 14 9 9 10 10 10 11 11 11 11 12 12 11 10 16 14 13 13 14 16 19 19 18 18 18 18 20 20 16 14 15 15 16 13 14 16 14 12 14 15 17 15 14 13 14 15 16 16
8 7 5 4 4 4 3 2 2 2 2 2 2 2 3 3 2 2 2 3 3 4 4 5 4 5 6 6 7 7 8 11 16 17 16 17 17 15 10 10 9 10 11 11 10 11 12 12 12 12 12 13 13 14 13 13 14 13 12 13 13 16 19 21 22 24 20 15 15 16 15 13 15 15 15 14 15 14 14 14 13 14 15 17 19
7 6 6 4 4 3 3 2 2 2 2 2 2 2 2 2 2 2 2 3 4 4 4 4 4 4 5 6 6 7 7 14 15 17 16 17 17 14 8 9 9 9 10 11 11 12 12 12 12 13 13 13 13 15 15 15 13 11 12 12 12 13 13 14 14 13 12 12 14 16 17 16 16 17 15 14 15 16 16 16 17 16 17 17 17
7 6 5 4 4 4 3 3 2 2 2 1 2 2 1 1 2 2 2 3 2 3 3 3 4 5 5 6 6 7 8 14 16 16 17 17 18 10 8 9 9 9 10 11 12 12 12 12 12 13 14 15 18 23 21 17 14 14 15 14 11 12 12 14 18 18 18 18 17 18 17 18 21 18 17 15 14 13 12 12 11 11 12 13 15
6 7 5 5 5 4 4 3 3 2 2 1 1 1 1 1 2 1 2 3 4 3 4 4 4 5 5 5 7 8 7 11 16 17 17 18 14 8 9 8 9 10 11 12 12 12 11 12 13 14 15 16 20 24 24 23 15 14 13 12 11 11 12 12 19 25 27 28 29 29 29 27 26 26 26 27 20 16 13 14 12 10 12 14 13
8 7 7 4 5 5 4 4 4 3 2 1 1 1 0 1 1 1 3 4 4 4 4 4 3 4 5 6 6 8 7 11 17 17 18 17 15 10 9 9 10 11 11 11 10 11 14 21 21 17 17 17 22 25 25 21 14 13 13 14 15 13 13 11 9 12 23 27 28 28 28 27 27 28 27 25 24 20 13 15 12 11 14 12 15
9 9 7 6 5 5 4 3 3 3 1 1 0 1 1 1 2 2 2 3 4 4 4 4 4 3 4 6 10 10 8 10 15 17 18 17 14 9 8 9 9 10 10 11 12 12 14 15 21 20 18 20 26 25 26 21 15 14 13 13 13 12 11 11 12 12 10 10 11 13 14 18 17 15 15 23 24 21 16 15 13 14 16 14 13
8 7 6 6 6 4 3 4 3 2 2 1 0 1 1 1 2 2 3 2 4 4 4 4 5 4 4 5 5 6 8 7 10 18 17 18 18 11 9 9 10 11 11 11 10 10 11 11 14 20 24 25 26 26 25 27 19 14 12 11 12 12 10 11 11 11 10 10 9 10 11 11 11 12 13 13 14 16 16 15 14 13 14 14 13
8 7 6 6 5 5 3 3 2 1 1 0 0 1 1 2 3 3 3 3 3 5 5 5 5 5 4 5 5 6 6 8 9 17 18 18 19 16 9 9 10 11 10 10 8 8 8 9 9 16 23 24 25 26 27 29 27 18 13 10 10 15 17 12 11 13 8 8 8 9 10 11 12 12 13 13 12 12 13 14 14 14 14 13 14
8 6 6 5 5 4 3 2 2 1 0 1 0 1 1 1 2 3 2 3 5 6 6 4 5 5 3 4 4 6 7 12 10 14 18 18 18 19 12 10 11 11 11 9 11 12 13 12 11 17 25 25 26 28 30 29 29 17 12 19 23 25 18 13 10 9 8 10 11 12 11 12 11 11 11 11 12 12 12 13 14 14 14 14 14
7 6 6 5 4 3 2 2 1 1 0 0 0 2 2 2 3 3 4 4 5 7 6 5 5 6 4 3 4 6 7 7 15 13 17 18 18 18 19 16 19 13 12 12 11 10 10 13 14 23 25 26 27 28 28 28 21 14 22 23 23 25 19 8 8 8 9 9 9 10 11 11 11 11 11 12 12 13 13 13 14 14 14 14 16
7 6 5 5 5 3 2 1 1 0 1 0 0 1 2 2 3 3 3 3 4 5 4 4 6 6 7 7 5 5 6 7 10 15 15 18 18 19 20 20 20 13 12 12 13 14 14 13 14 25 26 26 27 27 26 23 16 21 22 24 25 22 9 9 8 8 9 10 10 11 11 11 10 12 12 11 12 13 15 14 14 15 16 15 17
7 6 5 5 3 3 1 0 0 0 1 1 1 2 2 1 3 2 3 3 3 4 5 4 5 6 8 8 7 7 6 7 7 11 18 17 18 20 20 21 20 21 14 9 10 12 18 25 26 24 23 24 26 22 17 17 21 23 25 25 22 9 9 9 10 10 10 11 10 11 12 13 13 13 13 14 15 14 13 13 13 12 13 14 15
7 7 6 5 4 3 1 0 0 1 2 2 2 2 3 2 3 4 3 3 3 4 4 4 4 5 6 7 7 7 7 7 6 7 8 12 15 19 22 20 20 21 20 16 21 23 22 23 24 24 21 18 12 10 11 12 20 22 20 18 9 9 8 9 9 9 10 10 11 12 12 12 12 13 14 13 12 12 12 12 11 12 10 10 12
7 6 6 5 4 4 2 2 1 1 1 1 2 2 3 3 3 3 3 3 3 3 4 3 4 5 5 8 9 8 7 8 7 6 8 9 9 10 10 10 16 16 12 10 12 12 15 15 14 17 15 19 18 17 15 14 11 10 8 8 8 8 9 9 9 10 11 11 12 12 12 12 12 12 12 11 12 11 10 11 12 12 12 12 14
8 7 7 5 4 4 4 3 3 2 2 2 2 3 3 3 3 4 4 4 3 4 3 5 6 6 5 7 7 10 10 7 7 10 9 8 7 8 8 7 9 9 10 11 11 12 11 12 12 9 9 8 8 7 7 7 8 8 9 9 9 9 11 15 14 9 9 10 10 11 11 11 12 12 12 12 12 12 10 10 11 12 11 11 11
6 6 5 5 5 3 4 3 3 3 3 2 3 3 4 3 4 5 6 6 6 6 6 7 8 8 8 9 8 7 6 10 10 13 13 17 15 11 8 9 9 8 12 17 11 8 8 7 7 8 7 8 9 8 8 9 9 9 10 10 9 9 9 8 9 9 9 9 10 11 12 11 12 12 12 12 11 11 9 10 10 10 11 11 12
6 6 6 6 4 4 4 3 3 3 3 3 3 4 6 10 9 7 6 11 16 18 14 8 9 8 7 7 6 8 7 9 17 20 19 19 19 18 17 16 16 13 14 16 10 6 6 7 7 8 8 8 9 9 9 9 10 10 9 11 10 9 9 9 9 9 10 10 11 11 11 12 12 12 11 12 12 11 11 12 12 10 10 10 11
7 6 5 6 6 5 4 4 3 3 2 2 2 3 6 7 8 11 13 12 13 14 14 16 16 14 9 6 7 14 17 17 17 17 19 18 18 17 17 15 15 14 13 8 5 4 5 6 7 7 7 7 7 8 8 9 9 9 10 10 9 10 10 9 10 10 11 11 11 11 11 11 12 12 12 12 13 13 12 11 10 10 11 11 11
8 7 6 5 5 5 3 3 2 2 2 2 2 2 2 6 11 6 5 9 11 13 13 12 11 10 11 11 9 7 11 14 15 16 17 16 16 16 15 14 14 13 12 11 3 3 4 6 6 7 7 7 7 7 8 8 8 9 9 10 10 9 9 9 11 11 11 11 11 11 11 11 12 12 12 12 13 13 12 12 11 10 10 10 11
7 5 5 5 4 5 4 3 3 3 3 2 2 2 1 1 4 10 9 7 9 12 11 8 9 11 12 12 12 12 12 13 16 16 15 15 15 15 13 12 11 12 11 7 3 6 5 5 5 6 6 6 7 7 8 8 8 8 8 8 9 10 10 10 11 10 10 10 11 10 11 11 12 12 12 13 13 13 13 12 12 11 11 11 12
6 5 5 5 5 4 3 3 3 3 3 3 2 3 2 2 3 3 6 9 7 4 4 8 12 13 12 12 12 12 12 13 14 14 14 14 15 15 12 7 6 8 9 4 3 5 5 5 6 6 6 6 7 7 7 8 8 8 8 8 9 9 10 10 9 9 9 10 9 10 11 11 11 12 12 12 12 12 12 12 12 12 11 11 11
5 4 6 5 4 4 3 2 4 3 3 3 3 2 3 3 3 4 4 4 6 8 8 7 8 10 11 10 11 13 13 13 13 12 13 14 14 15 10 5 4 4 4 2 3 4 7 7 7 7 6 7 8 7 8 9 8 8 8 9 9 9 8 9 9 8 9 10 11 11 11 12 12 12 12 12 12 12 12 12 12 12 13 12 12
7 5 5 4 4 2 3 4 3 3 3 3 2 2 4 4 4 4 4 4 5 6 6 4 5 11 16 13 12 12 14 13 12 11 12 12 12 13 6 5 5 5 5 4 4 6 5 6 6 7 6 6 7 7 7 8 8 9 9 9 9 9 10 9 9 9 10 11 11 12 12 11 11 12 12 12 13 12 12 12 12 13 13 13 12
6 5 4 3 4 3 3 3 3 3 4 3 3 3 3 3 4 3 5 5 5 5 6 6 6 8 7 4 6 12 15 14 11 10 11 11 10 5 1 3 3 4 4 5 5 4 6 5 5 6 7 7 7 7 8 8 9 9 9 9 9 10 9 9 10 11 11 11 11 11 11 11 12 12 11 12 12 12 12 12 12 13 13 15 16
6 6 6 4 4 4 3 3 3 5 4 3 3 2 3 3 3 4 5 5 5 6 7 5 4 3 6 8 8 6 8 12 10 9 7 6 5 3 3 3 3 3 5 5 5 5 5 6 4 6 7 7 7 8 7 8 8 8 9 9 9 8 14 12 11 9 8 9 10 10 11 12 11 11 11 11 12 12 12 13 12 13 13 15 13
5 6 8 8 6 6 4 3 4 3 3 3 2 3 5 4 3 4 5 4 5 5 6 5 5 4 5 4 5 8 9 6 5 6 6 5 4 3 3 3 4 3 4 5 5 5 5 6 7 6 6 7 7 8 7 8 8 8 9 9 9 7 9 8 8 7 8 9 10 11 10 10 11 11 11 11 11 11 12 12 13 12 12 12 12
5 4 5 8 5 5 5 5 4 3 5 2 3 3 4 4 4 4 4 4 5 5 5 6 6 5 4 3 5 6 6 6 5 5 5 6 5 5 4 4 4 4 4 4 4 4 5 6 6 7 7 7 6 7 7 7 8 8 9 9 9 9 8 8 9 10 11 10 10 10 10 10 10 10 10 10 10 10 11 12 12 12 12 12 12
6 5 4 6 6 4 3 3 4 4 3 4 4 4 5 5 4 5 4 5 5 5 6 7 7 6 5 8 12 12 5 1 4 4 5 4 5 5 5 5 5 5 4 4 4 4 5 5 6 6 7 6 6 7 7 7 8 8 9 10 9 9 9 9 9 11 11 10 10 10 10 11 10 10 11 11 12 11 11 10 10 11 11 11 11
6 5 4 4 4 3 4 5 5 4 4 5 4 4 6 5 4 5 5 4 6 6 6 7 7 6 8 14 13 13 4 1 3 6 5 4 5 5 5 5 5 5 5 5 4 4 5 5 6 6 7 7 6 7 7 8 8 8 9 9 10 10 10 9 9 10 11 11 11 10 10 11 11 11 11 12 11 10 10 10 10 10 10 10 10
6 5 5 5 4 5 5 5 3 3 4 4 5 5 5 5 5 6 5 6 5 5 5 7 7 6 6 9 10 10 3 3 4 5 4 5 5 5 5 5 4 5 5 5 4 4 4 5 6 6 6 7 6 7 8 8 8 9 10 10 10 10 10 11 9 10 12 11 11 11 11 11 10 9 10 10 10 10 10 10 10 9 9 9 9
5 5 6 4 5 3 4 3 3 4 4 5 5 6 6 6 5 4 5 5 6 5 6 6 6 7 7 6 6 5 4 5 4 4 5 5 5 5 5 4 5 5 5 4 4 3 3 4 5 6 6 6 6 7 7 8 8 8 9 10 10 10 10 10 8 7 9 10 11 11 11 10 10 9 9 9 10 10 10 10 10 9 9 9 9
5 5 5 4 3 4 3 2 4 4 5 5 4 4 6 4 5 5 5 5 6 6 5 6 6 5 7 6 5 5 6 5 6 6 5 5 6 6 5 5 5 6 5 5 4 4 4 5 6 6 8 6 6 6 7 7 8 8 8 9 10 10 9 10 8 8 9 8 9 10 10 10 10 10 9 9 9 10 9 10 10 10 9 8 8
5 5 5 4 4 5 5 4 6 4 5 6 6 6 5 4 5 5 6 6 6 5 5 6 5 4 6 6 6 7 6 5 6 5 7 6 6 6 5 5 5 5 5 5 5 5 5 5 5 6 7 7 7 6 7 7 8 8 9 8 9 10 10 10 9 8 8 8 7 7 8 9 9 9 11 10 9 9 9 9 9 9 9 9 8
5 5 4 5 5 6 6 5 4 5 5 6 5 5 5 5 5 6 6 6 6 6 6 6 5 5 5 6 6 6 7 6 6 6 6 7 7 7 6 6 6 6 6 5 4 5 5 6 5 6 7 7 8 8 7 6 7 8 8 8 9 10 9 10 11 8 6 6 5 4 7 7 8 8 9 9 8 8 8 8 8 9 9 8 7
5 5 5 5 4 4 5 4 5 6 6 6 5 6 6 6 5 6 6 6 6 6 6 5 5 6 6 6 6 6 6 6 6 7 6 7 6 6 6 6 6 6 6 6 5 5 5 5 6 6 7 7 7 7 7 7 7 7 8 8 9 9 14 18 12 9 4 4 4 5 6 6 6 6 7 8 8 7 8 8 8 7 8 7 7
5 6 5 5 5 5 5 6 7 6 6 5 5 5 6 5 6 5 5 5 5 6 5 5 5 5 5 6 6 6 6 7 6 6 6 6 6 6 6 6 6 6 6 7 7 6 6 6 6 6 7 7 7 7 7 7 7 7 8 8 11 19 22 24 16 10 7 4 3 4 4 5 7 8 7 8 8 7 6 7 6 7 6 6 6
6 5 5 5 5 5 6 6 5 5 6 5 5 5 5 6 5 6 5 5 5 6 6 5 6 6 6 6 7 6 5 6 6 6 6 6 6 6 6 6 6 6 6 6 7 6 6 6 6 6 7 7 7 7 7 7 8 7 7 9 17 21 22 22 19 16 9 3 4 3 4 5 5 6 5 6 7 8 8 7 7 7 6 5 6
6 6 5 5 5 5 4 4 5 5 5 5 6 6 6 6 6 6 5 6 6 6 5 5 6 6 6 6 7 6 6 6 6 6 7 7 6 6 6 6 6 6 6 6 7 6 6 6 6 6 6 7 7 7 7 8 8 8 12 18 21 21 21 20 13 16 17 6 2 3 4 5 6 7 7 6 7 6 8 8 7 6 6 6 5
Wind_Direction
114 110 108 102 102 96 100 97 94 91 87 80 81 75 70 63 56 54 48 42 32 29 31 27 22 20 19 19 18 11 10 5 3 357 354 350 348 340 339 340 336 330 328 325 327 323 321 315 313 310 309 305 303 304 302 299 297 291 287 285 282 276 271 271 274 282 282 237 265 286 293 299 290 287 290 288 285 282 271 267 274 272 268 268 272
127 126 112 109 106 110 105 100 98 91 87 82 80 74 59 53 48 44 51 38 35 34 30 22 20 15 15 14 11 9 5 2 356 353 348 345 342 340 336 336 332 327 328 323 325 323 317 312 311 310 307 301 301 300 300 299 297 293 288 286 282 284 273 276 278 279 287 288 280 282 287 283 284 279 285 296 292 288 284 284 273 253 265 261 262
127 125 117 113 109 107 105 100 100 91 84 75 74 72 71 67 57 59 52 42 37 40 27 23 18 15 17 13 9 6 1 355 348 344 339 336 332 330 330 329 325 323 321 317 316 313 310 307 307 309 310 306 301 297 296 293 291 289 289 286 285 282 281 273 279 282 285 288 285 285 285 287 284 293 285 275 282 286 287 281 277 275 262 258 261
133 123 118 108 110 111 102 96 89 90 91 92 87 73 68 61 48 49 39 30 33 25 24 16 14 13 10 11 8 1 356 347 341 336 331 330 327 323 323 319 313 311 311 312 315 314 312 312 310 315 312 306 303 303 300 298 299 296 292 290 286 285 282 278 271 276 285 289 288 286 290 289 284 286 290 279 276 275 270 280 276 269 267 258 256
133 127 121 116 108 100 101 103 106 99 93 86 74 64 52 47 38 36 29 23 23 15 14 12 11 13 6 6 357 358 352 341 334 331 330 329 326 321 320 318 317 314 312 311 312 314 312 310 310 312 311 307 305 304 305 304 300 295 291 291 288 286 283 280 278 275 279 280 285 283 284 280 277 279 284 290 289 277 269 265 273 276 274 262 255
135 129 126 110 112 118 120 112 100 95 89 78 67 57 51 44 37 29 33 14 20 9 12 11 5 6 358 358 346 346 341 333 328 330 331 329 324 319 315 313 312 312 310 312 314 313 310 309 311 312 312 310 308 309 307 304 302 295 292 292 291 288 285 283 280 279 277 278 282 289 284 284 286 274 277 279 287 293 293 290 281 273 280 280 259
138 123 117 121 125 117 111 103 98 92 87 83 77 71 62 54 40 38 24 21 20 11 10 9 357 3 353 356 348 344 337 330 326 327 327 326 322 321 323 322 320 319 319 317 317 315 313 313 312 314 312 312 310 310 310 308 303 301 300 300 296 294 291 289 288 284 280 281 282 281 287 285 280 285 284 281 282 283 293 299 295 280 266 269 281
126 124 128 120 114 113 103 100 96 96 100 98 90 84 73 55 46 33 33 22 21 16 6 359 355 357 351 347 344 341 330 322 327 324 321 327 326 325 322 321 320 318 317 317 319 318 316 315 313 312 312 310 308 308 309 307 306 302 304 304 302 300 296 294 292 289 287 287 285 288 285 287 287 281 285 286 283 281 276 287 290 293 293 289 279
129 131 122 113 113 114 113 103 105 106 102 101 92 81 69 55 42 41 32 24 16 10 360 352 351 351 349 343 341 333 326 324 328 327 329 328 326 320 320 318 317 316 316 316 316 315 314 312 309 309 309 307 305 303 300 301 303 302 302 303 302 301 298 297 296 295 290 288 288 286 288 288 288 293 293 288 284 286 294 293 287 285 288 288 283
136 126 110 114 116 112 108 102 102 102 99 96 83 75 65 47 38 35 25 17 6 3 353 351 358 348 346 339 339 333 323 316 312 321 323 322 320 317 313 312 313 313 313 313 312 311 310 310 307 306 306 305 302 299 299 299 296 294 298 304 303 301 298 297 295 294 294 293 291 296 294 291 295 297 297 294 291 288 283 279 279 286 287 284 284
122 112 115 121 122 117 108 107 108 102 88 82 74 64 49 36 34 27 17 7 358 0 348 355 357 346 344 339 333 329 316 309 317 322 322 321 318 313 310 309 310 309 307 307 307 309 308 308 307 307 305 303 300 298 299 300 300 300 299 298 297 296 298 297 294 294 292 288 289 290 291 293 296 303 304 312 318 318 305 291 287 291 292 295 291
118 113 119 126 120 113 113 119 110 100 88 74 73 67 54 39 30 21 2 1 355 347 350 355 344 341 335 333 329 321 312 312 321 320 319 318 316 313 310 307 306 303 303 302 303 305 306 306 304 302 299 299 301 301 299 299 300 300 301 300 300 300 299 299 300 299 295 292 289 286 290 290 294 295 294 296 299 296 298 304 303 303 301 299 297
119 119 124 123 118 116 126 127 121 117 100 102 82 73 67 34 26 9 2 345 334 346 345 340 334 337 330 327 324 319 307 312 316 316 315 316 315 313 305 302 299 299 301 302 302 302 301 301 301 297 298 300 300 298 297 298 298 297 298 300 301 299 297 296 296 294 296 292 290 290 291 298 295 293 297 297 295 291 290 284 283 282 283 285 284
120 126 128 130 134 136 139 140 139 136 137 99 80 66 57 26 8 342 339 336 338 329 325 326 329 328 325 319 313 309 304 305 312 312 314 312 311 310 301 301 299 299 299 297 294 294 295 295 297 297 296 297 295 294 294 293 293 294 292 290 284 281 286 290 288 288 287 283 285 286 291 290 288 294 299 301 301 299 296 291 290 287 281 275 276
126 137 141 144 145 150 151 153 149 146 126 95 78 63 49 10 348 341 342 326 327 321 321 318 313 313 309 309 304 300 294 306 309 311 310 310 308 310 306 302 296 290 289 289 290 291 291 289 290 292 293 292 290 288 290 291 290 281 274 268 266 269 269 270 272 273 276 279 279 282 286 287 287 289 290 286 281 279 275 275 278 276 277 276 270
140 139 145 159 159 157 153 152 156 142 125 123 94 36 35 346 337 328 321 304 286 297 296 298 299 302 301 298 297 292 291 306 308 308 309 309 310 310 302 293 288 286 286 289 289 290 287 287 288 287 286 286 283 287 288 288 286 280 275 272 266 264 260 257 268 273 277 281 281 281 281 280 281 283 285 288 288 288 288 289 292 301 301 294 286
159 159 160 162 165 161 153 153 163 153 160 162 112 32 359 319 323 308 308 302 305 299 289 290 292 292 293 288 291 289 287 304 308 309 310 311 312 301 293 289 287 286 284 287 289 290 289 286 282 281 281 282 281 285 289 291 284 275 274 273 269 268 267 261 264 273 278 278 278 279 282 285 287 288 290 292 292 292 293 293 292 300 290 288 288
160 158 164 162 163 157 155 155 163 169 178 163 142 320 302 301 289 296 305 305 300 287 293 290 277 276 281 284 284 291 289 305 310 311 310 308 307 302 296 288 283 281 280 279 286 289 283 275 276 277 277 280 283 284 285 286 283 281 275 274 274 269 268 263 258 257 263 271 274 276 277 281 286 288 291 291 291 291 288 283 289 290 282 284 287
167 167 166 158 152 145 152 157 162 171 175 164 153 262 291 292 293 289 270 275 283 290 290 291 282 276 264 271 290 294 292 299 306 306 306 305 305 298 292 286 283 287 289 290 286 279 275 270 271 277 284 285 288 291 291 290 284 278 275 273 271 262 265 258 262 265 259 253 256 261 267 272 274 272 271 277 282 282 280 280 284 279 278 278 279
157 145 142 144 140 144 152 153 168 164 171 143 196 247 278 289 284 297 295 289 292 295 289 284 286 281 272 272 275 284 290 288 294 301 304 304 303 300 295 292 291 292 288 272 264 263 261 267 269 274 286 289 292 293 292 290 285 278 273 271 269 272 267 268 267 267 265 262 263 261 262 260 265 272 276 279 279 277 275 275 275 274 275 276 276
144 144 139 136 138 143 145 154 160 177 159 175 233 311 291 296 306 294 293 295 291 297 291 284 282 282 281 283 279 283 275 284 288 301 305 306 304 303 292 282 281 275 268 263 257 263 268 254 246 272 293 294 293 292 291 286 287 286 282 275 269 271 279 276 276 282 294 298 294 293 291 290 286 283 284 284 283 282 280 277 274 273 274 277 277
136 140 143 139 139 140 146 159 149 152 147 134 127 289 278 292 293 290 284 296 296 294 295 287 288 289 293 283 276 278 279 282 285 291 300 304 305 304 301 287 288 287 291 294 297 291 281 279 278 286 295 295 293 290 287 288 293 296 290 291 293 300 306 306 307 305 300 299 298 296 293 289 288 290 287 285 284 284 282 279 277 273 268 268 271
138 138 134 136 143 151 161 156 164 146 149 174 199 273 290 299 291 283 285 287 287 293 293 300 306 308 307 299 282 274 272 267 284 287 294 303 306 306 304 304 304 303 299 288 278 281 293 295 291 291 293 293 291 294 300 306 311 309 307 306 305 308 314 323 324 315 305 300 297 291 289 286 288 288 285 286 285 284 283 281 279 277 275 273 273
135 134 141 146 152 166 172 161 155 161 177 180 196 255 283 283 279 259 266 274 289 294 299 304 314 314 316 310 294 284 286 284 280 285 294 304 308 310 309 306 304 297 290 292 298 296 295 289 283 289 297 302 306 309 310 313 313 313 313 312 315 322 333 324 317 306 299 293 288 287 285 285 283 282 281 281 281 279 282 279 277 276 274 273 272
140 149 155 160 167 174 160 154 192 217 239 178 222 250 276 259 282 269 268 280 277 284 296 309 306 307 308 304 309 310 305 303 298 304 309 311 312 310 307 308 307 306 303 289 285 287 292 298 303 307 309 310 310 313 319 319 316 314 315 316 322 330 322 313 309 304 297 292 287 287 285 284 283 281 283 284 283 280 275 275 271 263 265 267 267
154 163 163 166 178 154 137 319 267 245 249 216 207 220 228 248 259 276 268 265 263 274 290 300 291 288 283 293 302 306 302 293 292 291 292 304 300 296 295 302 307 306 305 304 304 307 310 311 311 311 308 309 323 333 325 323 320 319 320 321 319 312 309 306 301 301 293 293 292 290 289 291 290 291 288 284 281 276 276 273 274 271 264 266 275
158 162 170 171 162 156 161 224 256 242 223 245 232 230 227 226 239 262 257 263 269 261 272 276 280 272 271 298 299 295 299 310 293 290 309 296 283 280 283 274 295 309 316 315 319 314 310 311 311 315 328 327 324 322 320 320 320 317 313 309 306 307 306 305 303 303 302 299 297 293 294 294 295 296 297 296 290 285 278 276 276 276 276 277 281
167 175 176 170 171 171 177 206 215 238 236 204 246 252 234 220 221 241 239 250 250 264 254 263 269 271 268 284 286 299 301 286 303 311 291 271 281 297 294 308 330 334 329 322 315 323 327 328 333 341 334 331 326 317 312 309 313 317 319 323 325 326 324 319 312 300 295 295 292 293 293 299 301 301 299 294 288 285 278 274 273 275 273 276 278
161 162 163 157 180 178 186 196 199 213 253 254 242 225 244 248 243 255 242 234 234 234 259 258 260 267 272 281 278 266 279 309 307 301 306 314 314 316 336 335 335 345 329 335 348 351 344 342 341 340 342 336 337 336 339 341 338 334 331 328 328 325 321 318 317 312 307 306 308 311 308 305 300 297 293 286 280 280 272 271 264 266 273 268 264
159 176 163 176 183 180 193 200 204 208 221 251 283 290 250 250 248 239 249 254 253 252 243 235 246 247 246 234 260 300 308 296 305 311 314 312 319 329 331 336 342 338 341 5 10 359 349 340 342 343 343 344 338 339 336 335 330 328 324 323 322 320 318 316 312 311 314 314 310 307 303 301 296 296 297 298 298 293 286 285 279 274 271 269 269
156 172 172 189 188 186 187 195 201 200 212 219 226 269 310 301 288 283 279 275 273 277 285 291 298 297 296 304 308 298 299 302 307 311 312 317 327 332 335 346 346 341 357 17 10 350 343 342 337 335 337 334 330 328 327 324 323 321 320 318 315 316 318 316 315 316 315 312 310 306 304 301 300 301 303 304 302 301 298 286 276 271 268 269 269
171 179 178 184 183 183 180 184 190 202 215 218 226 240 277 315 314 306 295 288 292 295 295 298 301 307 309 306 304 301 301 305 310 312 314 325 332 333 341 354 347 348 5 21 0 344 344 336 330 328 326 324 319 317 314 313 310 312 313 314 314 314 315 313 313 314 310 308 304 305 305 305 306 305 303 305 306 305 303 299 289 276 267 265 263
174 168 170 169 176 177 182 185 198 199 220 223 234 222 256 283 296 312 317 304 292 292 298 306 317 317 316 314 309 305 305 311 313 313 322 332 335 337 352 6 349 355 5 12 359 342 334 328 317 316 318 312 315 313 312 309 308 306 307 304 304 308 306 302 304 301 299 297 301 305 308 307 306 306 309 309 307 305 306 303 300 292 283 275 273
169 164 170 173 168 178 179 192 195 207 211 212 216 226 252 240 263 267 303 321 323 284 262 308 317 323 322 319 317 314 314 314 314 316 331 338 338 344 2 359 339 3 11 355 333 327 323 322 322 318 317 310 310 312 309 310 309 304 301 298 296 297 297 300 304 302 298 297 302 310 311 308 310 311 308 307 304 304 304 305 305 301 293 284 284
161 161 159 155 168 179 183 190 194 203 196 214 218 238 247 256 251 260 272 285 292 301 308 314 314 317 323 323 318 318 319 318 316 325 341 344 343 354 6 9 355 333 357 354 333 328 328 326 319 317 318 315 314 313 308 309 308 307 304 304 302 299 301 306 305 297 295 308 314 313 312 313 313 310 309 307 308 307 306 306 307 305 301 295 290
158 159 170 169 171 173 184 189 201 199 208 227 219 228 230 232 241 254 268 268 276 288 291 291 303 315 318 319 325 325 320 321 319 335 351 348 352 10 5 348 342 332 328 321 319 319 307 304 308 309 311 306 309 307 307 305 303 304 303 301 300 304 304 305 303 307 319 318 311 313 315 311 310 310 308 305 302 301 301 302 301 302 303 300 296
166 170 163 172 172 182 183 188 189 201 231 230 228 227 225 239 257 263 264 269 274 269 274 298 315 316 319 304 309 320 319 320 319 338 350 347 356 13 323 307 287 300 294 314 315 308 310 307 307 306 309 306 306 306 306 302 302 301 299 298 298 302 301 296 309 319 316 314 310 309 310 310 311 310 310 308 305 303 302 302 302 302 304 303 303
169 171 173 162 162 173 178 186 208 221 226 229 226 223 252 259 256 252 259 268 269 279 292 297 301 300 306 302 322 313 303 302 314 333 337 345 349 335 316 291 292 294 307 312 317 311 306 309 304 308 305 303 301 306 305 303 305 303 302 301 302 298 302 305 310 309 305 309 312 312 313 312 312 313 311 309 306 304 302 304 306 308 306 304 303
165 171 172 180 181 174 188 193 206 207 221 215 218 232 258 254 253 254 258 261 270 279 277 284 284 275 267 279 305 306 311 301 327 320 324 319 308 306 301 297 299 297 303 306 308 309 304 306 309 306 300 303 301 304 304 301 302 301 302 299 303 310 323 321 316 315 317 321 318 317 312 311 312 312 312 307 304 302 304 306 308 308 304 305 304
161 179 186 191 200 200 171 184 184 189 198 206 232 225 243 247 248 252 262 265 272 273 277 283 282 274 270 269 270 276 271 304 320 316 312 310 310 310 311 303 304 297 302 304 302 300 300 301 302 304 304 304 303 302 301 302 302 301 303 304 307 316 316 318 323 325 328 324 319 317 314 312 311 308 305 306 307 308 311 309 307 305 304 304 304
165 164 175 198 182 198 202 194 202 208 207 218 224 227 231 239 241 241 243 252 262 270 276 274 272 274 273 274 286 294 301 321 308 301 290 282 291 296 293 283 283 292 292 288 291 294 296 298 301 301 303 300 302 303 305 305 304 307 309 309 307 310 315 316 324 329 327 324 323 319 318 317 313 316 316 315 314 313 306 303 301 302 306 305 306
160 166 174 182 195 177 184 207 207 212 209 215 221 220 229 235 237 238 243 250 252 260 274 276 275 274 279 289 293 303 327 0 292 279 280 272 271 273 270 268 263 262 273 277 282 293 297 299 299 302 305 306 306 306 307 306 309 310 310 309 311 315 318 320 326 331 331 329 324 319 318 318 319 318 315 315 312 311 312 309 309 308 308 310 309
163 175 175 175 182 194 202 212 198 207 228 227 235 233 233 229 230 234 244 247 251 257 259 270 280 283 284 291 302 310 319 294 266 268 268 272 269 267 267 266 262 258 261 267 268 271 285 293 296 297 297 299 300 303 306 304 307 307 308 309 310 313 317 328 326 332 335 329 324 320 317 316 317 316 315 314 314 315 312 311 311 312 310 310 312
168 168 171 182 189 196 202 194 209 218 221 229 233 231 229 231 235 237 238 249 250 250 252 261 270 285 290 297 303 303 284 279 268 268 266 276 274 273 274 271 277 275 274 270 274 273 283 288 288 289 286 286 292 294 293 295 300 300 304 308 309 311 316 322 321 330 333 330 325 323 320 317 316 316 314 318 322 321 320 319 319 317 317 318 319
163 164 172 181 190 192 216 210 216 226 233 235 239 240 239 234 240 241 239 247 249 249 253 256 262 270 283 289 291 285 284 280 279 284 284 280 282 281 283 284 284 288 293 293 288 292 285 286 287 291 294 291 290 294 294 296 298 298 300 305 305 307 312 316 319 329 331 325 322 322 322 322 320 321 321 323 325 325 322 323 321 321 324 325 334
163 167 174 184 195 208 213 219 220 220 227 228 233 241 241 236 235 237 242 244 247 252 255 257 256 258 264 275 281 280 280 285 281 277 280 284 281 285 283 287 288 288 287 288 294 291 284 282 286 289 293 295 297 293 295 295 299 300 300 298 301 303 307 313 316 323 329 328 321 317 317 317 317 317 321 323 325 330 325 325 326 331 329 330 339
156 169 184 191 201 213 217 216 217 225 228 234 233 237 242 237 232 235 235 238 244 246 250 255 256 259 260 263 267 272 274 274 276 282 279 281 283 283 287 288 290 290 289 286 282 284 284 282 280 284 288 292 295 294 294 296 299 300 299 299 297 305 310 315 313 314 318 319 318 314 314 309 312 313 319 325 323 326 327 330 332 331 332 336 335
169 177 191 198 202 214 230 218 230 235 230 231 232 235 239 241 241 241 242 245 249 252 256 258 256 257 259 261 257 260 266 267 270 268 275 276 277 278 280 282 285 287 292 293 290 283 282 284 283 284 286 290 292 295 295 296 296 297 299 298 299 302 308 309 305 309 310 319 326 316 315 313 313 315 319 323 327 327 327 331 332 330 335 335 337
170 182 194 199 207 218 224 226 227 229 232 234 240 246 243 245 245 245 245 247 249 249 246 254 260 258 255 258 259 261 257 262 267 272 269 268 270 272 273 274 279 284 287 290 291 291 288 286 284 284 283 286 288 290 293 293 295 296 297 298 299 304 307 306 307 314 318 329 325 322 317 322 325 327 326 328 330 332 323 325 330 332 335 338 340
180 188 195 203 214 226 224 226 232 238 238 235 235 247 246 245 249 247 245 243 247 248 246 243 252 253 255 264 263 262 261 262 264 268 270 270 267 266 270 273 277 278 280 284 289 290 289 286 287 286 285 285 286 287 288 288 291 292 293 293 298 300 300 307 316 319 320 335 324 317 319 321 323 324 326 327 327 332 334 334 334 336 337 338 345
188 192 199 207 216 224 223 230 239 238 234 235 234 240 246 243 245 245 242 240 245 248 246 243 246 252 251 250 253 260 262 263 260 262 264 267 268 269 269 273 277 280 281 280 283 284 286 289 288 287 288 286 289 288 289 288 289 286 291 295 298 302 308 314 319 322 321 324 333 323 337 335 335 336 337 336 337 339 339 335 337 340 343 343 340